User: anonymous   Login
Location: Tauranga
(37.6860°S, 176.1670°E)
Time: 04:55:07
(UTC+13:00)
Language:

HJ-1C - Orbit

View from above orbital plane
View from above orbital plane
View from above satellite
View from above satellite

Ground track
Ground track

The orbit data is extracted from the following two-line orbital elements,

1 38997U 12064A   19295.07695784  .00001785  00000-0  44604-4 0  9994
2 38997  97.1797 324.4910 0010711 148.8970 294.7542 15.41426736388908
Epoch (UTC): 22 October 2019 01:50:49
Eccentricity: 0.0010711
inclination: 97.1797°
perigee height: 434 km
apogee height: 449 km
right ascension of ascending node: 324.4910°
argument of perigee: 148.8970°
revolutions per day: 15.41426736
mean anomaly at epoch: 294.7542°
orbit number at epoch: 38890

The dashed part of the orbit path shows where the satellite is in the earth's shadow,  

DLR